{"data":{"norad_id":59418,"epoch":"2026-05-24T22:06:49.206240Z","epoch_age_seconds":81710,"freshness":"FRESH","line1":"1 59418U 24064W   26144.92140285  .00000110  00000+0  13531-4 0  9999","line2":"2 59418  43.0027 345.7242 0001135 281.6974  78.3750 15.27571997120881","mean_motion":15.27571997,"eccentricity":0.0001135,"inclination_deg":43.0027,"raan_deg":345.7242,"arg_perigee_deg":281.6974,"mean_anomaly_deg":78.375,"bstar":1.3531e-5,"rev_number":12088,"period_min":94.267242580253,"perigee_km":482.29431266353,"apogee_km":483.85180734715,"semimajor_km":6861.2100600053,"source":"CELESTRAK","updated_at":"2026-05-25T13:38:18.943108Z"}}